Regional Weather Roundup
Issued by NWS

Home | Current Version | Previous Version | Text Only | Print | Product List | Glossary On
Versions: 1 2 3 4 5 6 7 8 9 10 11 12 13 14 15 16 17 18 19 20 21 22 23 24 25 26 27 28 29 30 31 32 33 34 35 36 37 38 39 40 41 42 43 44 45 46 47 48 49 50
000
ASUS45 KBOI 031810
RWRID
WEATHER ROUNDUP FOR IDAHO
NATIONAL WEATHER SERVICE BOISE ID
1200 PM MDT SUN MAY 03 2015

NOTE: "FAIR" INDICATES FEW OR NO CLOUDS BELOW 12000 FEET
WITH NO SIGNIFICANT WEATHER AND/OR OBSTRUCTIONS TO VISIBILITY

IDZ012-014-031900-
SOUTHWEST IDAHO


CITY           SKY/WX    TMP DP  RH WIND       PRES   REMARKS
BOISE          SUNNY     65  36  34 NW6       29.91R
CALDWELL       SUNNY     66  34  30 NW7       29.92S
MOUNTAIN HOME  PTSUNNY   69  31  24 NW6       29.90S
$$

IDZ016-017-031900-
SOUTHCENTRAL IDAHO


CITY           SKY/WX    TMP DP  RH WIND       PRES   REMARKS
BURLEY         SUNNY     69  31  24 VRB3      29.91F
JEROME         MOSUNNY   65  30  27 CALM      29.93F
TWIN FALLS     SUNNY     68  32  26 VRB6      29.93S
$$

IDZ019>023-031900-
SOUTHEAST IDAHO


CITY           SKY/WX    TMP DP  RH WIND       PRES   REMARKS
IDAHO FALLS    PTSUNNY   66  34  30 S10       29.97R
POCATELLO      PTSUNNY   69  32  25 SE6       29.95S
REXBURG        PTSUNNY   64  36  35 SW12      29.96S
$$

IDZ006-010-011-018-031-032-031900-
CENTRAL IDAHO MOUNTAINS


CITY           SKY/WX    TMP DP  RH WIND       PRES   REMARKS
MCCALL         SUNNY     59  29  31 S5        29.94S
HAILEY         MOSUNNY   64  37  36 SE7       29.98S
STANLEY          N/A     54  29  38 W14G22    30.02S
SALMON         MOSUNNY   57  27  30 CALM      29.93F
CHALLIS        PTSUNNY   60  23  24 CALM      29.95S
$$

IDZ002-004-006-007-026-031900-
NORTHERN IDAHO


CITY           SKY/WX    TMP DP  RH WIND       PRES   REMARKS
LEWISTON       SUNNY     61  32  33 CALM      29.97F
LOWELL           N/A     62  32  32 CALM      29.95F
COEUR D`ALENE  SUNNY     61  27  27 N14       30.01F
MULLAN PASS    SUNNY     47  15  27 CALM      30.02R
$$



USA.gov is the U.S. government's official web portal to all federal, state and local government web resources and services.